Temperature
24 24 24 23 23 24 23 22 22 22 23 23 24 23 22 21 20 19 19 18 17 16 14 13 13 12 12 12 12 12 11 11 11 11 11 11 11 11 11 11 11 11 11 11
22 23 23 23 23 23 23 23 23 22 23 24 23 22 21 20 20 19 19 18 17 16 14 13 13 13 12 12 12 12 11 11 11 11 11 11 11 11 11 11 11 11 11 11
22 23 22 22 23 23 23 23 23 22 23 24 23 22 21 20 20 19 19 18 17 16 15 14 13 13 12 12 11 11 11 11 11 11 11 11 11 11 11 11 11 11 11 11
22 21 20 23 24 23 22 23 23 23 23 23 22 21 20 19 19 19 18 17 17 16 15 14 13 12 12 12 11 11 11 11 11 11 11 11 11 11 11 11 11 11 11 11
21 21 22 23 23 23 22 21 23 23 22 22 21 20 21 20 19 18 18 17 16 15 15 14 13 12 12 12 11 11 11 11 11 11 11 11 11 11 11 11 11 11 11 11
21 20 20 22 22 21 21 21 22 22 21 21 21 21 22 20 19 18 17 16 16 15 14 14 13 12 12 12 12 11 11 11 11 11 11 11 11 11 11 11 10 10 10 10
20 20 21 22 21 21 20 20 19 19 20 20 20 20 20 19 19 18 17 16 16 15 14 13 13 12 11 12 11 11 11 11 11 11 11 11 11 11 10 10 10 10 10 10
19 19 20 20 20 18 18 17 18 18 18 19 19 19 19 19 18 17 17 16 15 15 14 13 12 12 11 11 11 11 11 11 11 11 11 10 10 10 10 10 10 10 10 9
19 19 19 18 17 16 16 16 16 17 17 18 18 18 18 18 18 18 17 16 15 15 14 13 12 12 11 11 11 10 10 10 11 10 10 10 10 10 10 9 10 10 9 9
18 18 17 16 15 14 13 14 14 15 16 16 17 17 17 18 18 17 16 16 15 15 14 13 12 12 11 11 10 10 10 10 10 10 10 10 10 10 10 10 10 10 10 9
16 15 13 13 11 11 11 12 12 13 14 14 15 15 16 16 16 16 16 15 15 14 14 14 13 12 11 11 10 10 10 10 10 10 10 10 10 10 10 10 10 10 10 10
11 9 9 9 8 9 10 10 10 11 11 11 12 12 13 14 14 15 15 15 14 14 14 14 13 12 11 11 10 10 10 10 10 10 10 10 10 9 9 9 9 9 9 9
6 6 7 7 8 8 8 9 9 10 10 10 10 10 10 11 12 13 13 14 14 14 14 14 13 12 12 11 10 10 10 10 10 10 10 10 10 9 9 9 9 9 9 8
5 6 6 6 7 7 8 8 9 9 9 9 9 9 8 9 9 10 11 12 13 13 13 13 13 12 12 11 11 10 10 10 10 10 10 10 10 10 9 9 8 8 8 8
6 6 6 7 7 7 8 8 8 9 9 9 9 8 8 8 8 8 9 10 12 12 13 13 13 13 12 11 11 10 10 10 10 10 10 10 10 10 10 10 9 9 8 8
6 7 7 8 8 8 8 8 8 8 8 8 8 8 8 8 7 7 8 9 10 11 12 12 13 13 12 12 11 10 10 10 10 10 10 10 10 10 10 10 10 10 9 9
7 8 8 8 8 8 8 8 7 7 7 7 8 8 7 8 7 7 7 8 8 9 11 12 12 12 12 12 11 11 11 10 10 10 10 10 10 10 10 10 10 10 10 10
8 8 8 8 8 8 8 8 8 7 7 7 7 7 7 7 7 7 7 7 7 8 9 10 11 12 12 12 11 11 11 11 9 10 10 10 10 10 10 11 11 11 11 10
9 8 8 8 8 8 8 8 7 7 7 7 7 7 7 7 7 7 7 6 7 7 8 9 10 11 11 12 11 11 11 11 10 10 10 10 10 10 11 11 11 11 11 11
8 8 8 8 8 8 7 7 7 7 7 7 7 7 7 7 7 7 7 6 7 7 7 8 9 10 11 11 11 11 11 11 11 11 10 10 10 11 11 11 11 11 11 11
7 7 7 7 7 7 7 7 6 6 6 6 6 6 6 7 7 7 7 6 7 7 7 7 8 9 10 11 11 11 11 11 11 11 11 11 11 11 11 11 11 11 11 11
7 7 7 7 7 6 6 6 5 5 5 5 6 6 6 6 7 7 7 7 7 7 7 7 8 9 9 10 10 11 11 11 11 11 11 11 11 11 11 11 11 11 11 11
6 6 6 6 6 6 5 5 4 4 4 5 5 5 5 6 6 6 7 7 7 7 7 7 7 8 9 9 10 10 11 11 11 11 11 11 11 11 11 11 11 11 11 11
5 5 5 5 5 5 4 4 4 4 4 4 4 5 5 5 6 6 7 7 7 7 7 7 7 8 8 9 10 10 11 11 11 11 11 11 12 11 11 11 11 11 11 11
5 5 5 5 4 4 3 3 3 3 3 3 4 4 5 5 5 6 7 7 7 7 7 7 7 8 8 9 10 10 11 11 11 11 11 12 12 12 12 11 11 11 11 11
5 5 5 4 4 3 3 3 3 3 3 3 4 4 4 5 5 6 6 6 7 7 7 7 8 8 9 9 10 11 11 11 11 11 11 11 12 12 12 12 11 11 11 11
5 5 5 4 4 3 2 2 2 3 3 3 4 4 4 5 5 5 6 6 7 7 7 8 8 9 9 10 11 11 11 11 11 11 11 11 11 11 12 11 11 11 11 11
Wind_Speed
17 18 18 19 20 19 20 21 23 24 24 21 19 17 15 12 10 10 9 8 7 6 5 5 5 5 4 3 3 2 2 3 4 5 6 6 6 6 5 5 6 7 8 8
18 18 18 20 22 22 22 22 23 24 24 20 16 13 12 11 10 10 10 9 7 6 6 6 7 6 6 5 4 4 4 5 6 8 8 8 7 7 7 7 7 8 8 9
15 14 14 13 12 12 14 15 18 20 19 16 16 15 13 11 10 10 10 9 8 8 7 7 8 7 7 6 5 5 5 5 7 9 10 9 9 9 8 8 8 9 9 10
10 10 9 6 7 10 14 16 16 17 17 18 18 15 12 10 10 10 9 9 8 8 8 8 8 8 7 6 6 6 6 6 8 9 10 10 9 9 8 7 8 9 10 11
8 11 12 10 9 10 13 16 15 14 14 15 13 11 13 10 9 9 8 8 8 8 8 9 9 9 8 7 7 7 7 7 8 10 11 11 10 10 8 8 8 9 9 10
9 11 9 7 11 9 11 13 8 12 14 16 14 14 12 6 5 8 8 8 8 8 9 9 10 9 9 9 8 8 7 7 8 10 11 11 11 10 9 8 9 9 9 9
12 12 8 7 11 14 12 13 20 22 22 21 19 17 18 15 11 9 9 9 10 10 10 10 10 10 10 10 9 8 7 7 8 9 9 10 10 10 10 10 9 9 9 8
7 8 5 12 16 14 17 22 24 24 24 24 23 22 20 19 15 13 11 11 12 11 11 10 11 11 11 10 9 8 8 9 9 9 9 10 11 11 11 11 11 10 9 8
7 9 13 16 17 19 21 22 23 23 24 23 23 22 21 20 17 15 14 12 13 13 12 12 12 12 12 10 9 9 10 10 10 10 9 10 11 12 12 11 10 10 9 8
10 10 15 17 19 21 22 23 23 23 22 22 22 22 20 19 17 15 13 13 14 15 14 14 14 13 12 10 10 11 11 11 10 10 10 10 9 10 11 11 11 10 9 9
11 11 14 14 20 23 23 23 22 21 20 20 20 19 19 18 17 15 13 13 14 16 16 16 15 14 13 12 12 12 12 11 11 11 10 10 10 8 9 10 8 9 10 9
6 12 11 13 18 22 22 22 22 22 21 20 19 19 18 17 16 15 13 12 14 17 17 17 16 16 15 14 13 13 12 12 11 10 10 10 10 9 7 5 9 6 3 4
8 14 12 15 18 20 20 22 22 20 19 19 18 18 18 17 17 16 14 12 14 17 18 18 18 17 17 16 15 14 13 12 10 10 10 11 11 11 10 6 6 6 5 4
11 12 13 17 19 21 22 23 22 21 19 18 16 17 17 17 17 17 16 13 13 14 17 18 19 19 18 18 17 16 14 12 11 10 11 11 11 11 11 12 12 10 7 8
12 12 13 17 19 20 21 22 23 22 21 20 19 18 17 17 17 17 17 16 12 13 16 18 19 19 19 19 18 17 15 12 12 11 11 11 11 12 12 13 13 13 13 11
16 16 17 19 21 22 23 24 23 23 23 22 21 20 19 17 17 16 15 15 13 13 15 17 19 19 20 20 19 16 15 13 13 12 12 12 12 12 12 13 13 13 14 14
19 20 22 23 24 24 24 24 24 23 24 24 23 22 21 19 17 16 15 14 14 14 13 15 18 18 20 21 20 16 15 15 14 13 13 13 13 13 13 13 13 13 13 15
21 23 25 26 26 26 26 26 24 24 24 25 25 23 21 20 18 16 15 14 14 13 12 13 15 17 19 21 19 16 15 15 15 15 14 14 13 14 14 14 15 15 13 14
24 24 25 25 25 25 25 25 25 25 25 24 24 24 23 21 19 16 14 13 12 11 11 10 11 16 19 20 18 15 16 16 16 16 15 14 14 15 14 15 15 15 15 14
26 26 26 26 26 25 25 24 25 25 25 25 25 24 24 22 19 16 14 12 9 7 9 10 9 13 17 18 18 16 17 17 17 17 16 16 16 16 16 16 16 16 15 14
26 27 27 26 26 26 25 25 24 25 25 25 25 24 24 22 20 17 14 12 9 6 8 10 9 10 14 15 18 17 17 17 17 17 17 17 17 17 17 17 16 16 15 15
26 26 27 27 26 26 25 24 24 25 25 25 25 24 23 22 20 18 16 12 10 7 6 8 8 8 10 13 16 17 17 18 17 16 16 17 17 17 17 18 17 16 16 15
25 26 27 27 27 27 27 25 24 24 24 24 24 23 22 20 17 16 14 11 9 8 7 8 9 7 7 11 14 16 18 18 17 17 17 17 17 17 17 18 17 17 16 16
25 26 26 26 26 26 26 26 25 22 24 24 22 22 21 18 16 15 14 12 12 11 10 10 11 11 9 10 13 15 17 17 17 17 17 17 17 17 17 17 17 17 17 18
25 25 25 25 23 20 22 24 24 22 22 18 20 20 18 16 15 14 13 13 12 11 12 12 15 15 13 12 14 15 16 17 17 17 17 16 17 17 17 17 17 16 16 16
23 22 21 21 19 18 18 19 18 17 17 16 15 15 15 14 15 14 13 14 16 13 13 12 13 14 14 15 15 16 16 16 17 17 18 16 17 17 17 17 19 16 15 15
24 21 19 19 19 18 19 19 19 18 17 16 15 14 14 13 13 13 14 13 13 13 12 12 13 13 14 15 15 15 15 16 16 18 18 17 16 15 16 17 15 15 14 14
Wind_Direction
279 285 286 283 280 275 263 262 272 281 286 293 303 307 302 293 283 276 276 276 276 276 272 258 242 230 237 242 231 210 201 193 177 165 160 160 158 154 150 149 145 138 130 123
284 283 282 280 275 273 271 269 269 274 279 286 296 302 296 284 274 275 280 276 268 259 254 244 238 233 236 242 244 239 224 207 184 172 164 164 162 158 153 146 136 130 123 116
286 294 293 278 278 281 279 275 273 276 284 295 300 298 294 286 277 278 282 276 264 255 248 238 234 234 239 245 250 252 241 208 181 176 169 164 164 160 152 145 138 130 123 115
286 297 272 291 319 296 292 290 289 287 289 294 297 298 289 274 271 277 277 269 261 253 245 234 228 227 236 246 248 247 235 207 184 174 166 162 164 157 150 147 142 134 128 121
280 287 288 295 312 316 305 298 300 305 308 308 310 296 276 257 245 257 267 262 256 246 238 228 224 223 228 239 245 244 232 205 183 175 167 166 166 159 154 151 143 139 134 133
277 288 290 326 9 346 307 291 350 341 327 319 311 294 302 312 245 240 240 238 235 230 225 219 219 219 227 238 241 239 227 201 181 174 170 170 167 162 156 151 145 140 133 137
277 278 278 354 354 329 302 326 337 323 314 307 302 296 301 300 277 252 236 225 217 216 215 215 212 213 227 238 240 234 214 190 176 170 169 167 162 159 157 156 147 139 134 131
282 277 287 4 340 330 316 316 312 308 304 300 298 296 293 290 281 262 241 224 211 206 208 207 206 210 225 234 234 221 205 189 176 172 169 164 163 162 162 157 153 148 144 140
291 290 325 335 327 326 323 315 312 308 304 299 296 295 294 291 286 269 247 229 210 204 204 201 201 208 223 227 219 213 204 191 177 171 171 169 169 167 166 170 173 167 167 162
288 292 326 333 340 340 334 325 319 314 309 304 299 297 296 293 289 277 253 229 211 203 202 200 201 206 216 218 209 210 203 189 178 175 176 176 178 177 178 180 181 176 177 169
288 323 338 346 351 345 341 339 338 334 329 324 317 310 304 298 293 285 264 235 214 206 203 200 197 201 206 206 203 207 202 191 186 185 183 178 184 181 190 185 183 184 181 174
339 348 327 337 341 342 341 341 341 341 340 340 337 331 325 315 307 298 279 247 222 212 206 200 195 197 199 199 200 204 201 196 193 190 186 187 179 169 61 89 108 103 98 174
351 333 333 337 336 338 335 333 334 335 337 337 337 338 336 331 324 312 295 265 235 221 210 201 195 195 195 195 199 204 204 198 196 194 189 194 190 185 174 133 101 122 136 124
348 342 335 336 330 328 327 325 325 324 326 328 329 331 332 332 332 327 314 292 262 238 221 206 198 196 193 191 195 200 203 195 199 197 195 197 197 195 187 179 177 177 175 160
330 325 313 313 315 318 318 318 319 318 320 320 321 322 325 327 327 325 322 312 285 250 228 213 204 198 191 190 193 197 200 196 197 199 198 199 196 197 192 188 185 180 174 169
308 307 306 308 310 311 313 313 313 312 312 312 311 312 314 314 315 318 321 321 305 271 238 219 209 199 190 190 191 195 199 193 189 197 198 197 196 196 193 191 190 186 183 179
299 306 308 307 307 305 305 305 304 304 305 305 306 306 304 305 307 311 316 318 312 295 266 232 215 200 191 190 191 194 194 186 185 199 201 198 197 198 196 194 194 193 191 181
296 297 298 299 299 301 301 301 300 300 300 301 301 300 298 297 300 303 307 311 312 303 281 246 222 204 194 191 192 195 192 186 190 201 201 200 198 199 199 198 198 197 193 177
308 306 304 302 302 301 300 300 299 298 299 298 297 297 294 290 290 293 296 302 307 302 295 280 237 209 198 193 189 194 193 191 189 197 200 193 197 202 201 200 199 198 197 190
317 316 313 311 308 306 304 301 299 298 298 298 297 294 291 289 285 285 286 285 282 287 301 296 260 219 205 194 190 195 194 195 194 195 198 196 199 204 204 203 202 202 202 203
321 319 317 314 312 309 307 304 301 298 297 296 294 292 290 288 284 279 274 276 273 277 296 294 270 232 210 193 191 200 197 196 197 198 199 200 200 204 206 206 206 207 208 210
320 318 316 314 312 310 309 307 304 300 297 294 292 291 290 287 284 278 266 261 259 249 267 278 268 248 219 196 197 206 203 199 199 200 201 202 203 204 207 208 210 211 213 215
317 315 315 314 313 312 310 308 304 301 296 292 290 289 287 283 282 279 274 261 247 231 242 266 279 284 231 217 208 209 210 204 202 202 203 204 205 206 208 210 212 214 216 218
316 316 315 315 314 313 311 309 305 301 296 292 285 282 282 280 275 269 268 255 233 227 239 248 260 264 245 237 223 214 213 210 207 206 206 206 207 208 209 211 213 215 217 221
314 314 313 313 314 313 310 310 308 303 297 292 285 281 278 272 269 269 269 269 259 240 247 239 233 238 245 242 227 219 215 212 210 208 209 209 209 209 209 210 213 215 217 219
314 312 311 311 312 312 313 311 308 303 299 292 286 281 276 271 266 262 259 260 259 250 249 246 237 227 231 232 227 221 218 212 209 212 214 211 212 212 211 211 212 214 217 219
314 315 315 318 319 319 316 313 309 306 302 295 287 280 275 271 266 262 260 259 258 251 244 239 234 230 228 225 224 220 217 215 212 211 213 214 214 213 212 211 211 211 215 219
Height
1499 1495 1494 1494 1493 1491 1493 1493 1494 1486 1481 1477 1476 1475 1476 1477 1478 1478 1478 1478 1477 1477 1476 1475 1475 1474 1474 1473 1472 1470 1469 1469 1470 1470 1471 1473 1475 1477 1479 1480 1482 1483 1484 1485
1500 1494 1491 1491 1487 1486 1484 1482 1481 1480 1477 1473 1473 1474 1474 1474 1474 1474 1473 1473 1474 1474 1473 1473 1472 1472 1472 1471 1470 1469 1469 1469 1469 1469 1471 1474 1476 1478 1480 1481 1483 1484 1485 1486
1500 1489 1491 1491 1480 1478 1477 1474 1474 1475 1472 1468 1469 1470 1471 1471 1471 1470 1469 1470 1470 1470 1470 1470 1470 1470 1470 1470 1469 1468 1467 1467 1468 1469 1471 1474 1476 1478 1480 1482 1483 1485 1486 1487
1496 1496 1501 1481 1474 1476 1476 1473 1469 1468 1467 1468 1467 1467 1468 1468 1467 1466 1466 1466 1466 1467 1467 1467 1467 1467 1468 1468 1467 1466 1466 1466 1466 1468 1470 1473 1475 1478 1480 1482 1484 1485 1486 1487
1497 1495 1487 1477 1474 1475 1477 1474 1469 1467 1466 1466 1465 1465 1462 1462 1462 1463 1463 1462 1463 1463 1463 1463 1464 1465 1465 1465 1465 1464 1464 1464 1465 1466 1468 1471 1474 1476 1479 1481 1483 1485 1486 1488
1496 1501 1497 1481 1478 1480 1480 1475 1469 1469 1469 1467 1465 1462 1457 1457 1458 1458 1458 1458 1458 1458 1459 1460 1460 1461 1462 1462 1462 1462 1462 1462 1463 1465 1467 1469 1472 1475 1477 1480 1482 1485 1486 1488
1496 1495 1484 1478 1482 1481 1483 1478 1475 1473 1471 1467 1463 1461 1459 1457 1456 1454 1453 1453 1453 1453 1454 1455 1456 1457 1458 1459 1459 1459 1460 1460 1461 1463 1465 1468 1470 1473 1476 1479 1481 1484 1486 1487
1494 1496 1490 1484 1484 1487 1487 1482 1478 1473 1469 1464 1460 1456 1454 1452 1451 1450 1449 1448 1448 1448 1449 1450 1452 1453 1454 1455 1456 1456 1457 1458 1459 1461 1464 1466 1468 1471 1474 1477 1480 1482 1485 1487
1494 1493 1489 1489 1490 1488 1485 1480 1474 1469 1464 1460 1455 1451 1449 1446 1444 1443 1443 1442 1442 1442 1444 1445 1446 1448 1450 1451 1452 1453 1454 1455 1457 1459 1462 1464 1466 1469 1472 1475 1478 1481 1484 1486
1493 1489 1491 1491 1490 1487 1484 1478 1472 1466 1460 1455 1450 1446 1443 1441 1438 1437 1436 1435 1435 1436 1437 1439 1441 1443 1445 1447 1448 1449 1451 1452 1454 1457 1459 1462 1464 1467 1470 1472 1476 1478 1481 1483
1495 1494 1495 1493 1492 1489 1483 1476 1469 1463 1457 1452 1447 1442 1439 1435 1433 1431 1429 1428 1428 1428 1429 1432 1434 1437 1439 1442 1443 1445 1447 1449 1451 1454 1456 1459 1461 1464 1467 1470 1473 1476 1478 1481
1505 1508 1504 1499 1495 1489 1483 1476 1469 1462 1455 1450 1446 1440 1435 1431 1428 1425 1423 1421 1421 1421 1422 1425 1427 1430 1433 1436 1438 1441 1443 1445 1448 1451 1453 1456 1459 1461 1463 1467 1469 1473 1476 1479
1513 1509 1504 1500 1494 1488 1483 1476 1469 1462 1456 1449 1444 1438 1433 1428 1423 1419 1416 1415 1414 1414 1415 1417 1420 1423 1427 1430 1433 1436 1439 1441 1444 1447 1449 1452 1455 1458 1460 1463 1466 1469 1473 1476
1511 1506 1500 1496 1491 1485 1479 1472 1465 1459 1453 1447 1441 1435 1429 1424 1418 1414 1410 1408 1407 1407 1409 1411 1413 1416 1419 1423 1426 1430 1434 1437 1440 1442 1446 1449 1451 1454 1457 1460 1462 1466 1469 1472
1507 1503 1499 1492 1486 1480 1474 1468 1460 1453 1447 1441 1436 1431 1425 1419 1414 1409 1405 1402 1400 1399 1401 1403 1406 1409 1413 1416 1420 1424 1428 1432 1435 1438 1441 1445 1448 1451 1454 1457 1460 1463 1466 1469
1500 1496 1491 1486 1480 1474 1467 1461 1455 1447 1441 1436 1430 1425 1420 1415 1409 1404 1399 1396 1393 1392 1393 1395 1398 1401 1405 1409 1413 1418 1422 1426 1429 1433 1437 1440 1443 1446 1449 1453 1456 1459 1462 1465
1494 1487 1482 1476 1471 1465 1460 1454 1448 1441 1435 1429 1424 1418 1413 1408 1403 1398 1393 1390 1386 1384 1385 1387 1390 1394 1398 1402 1406 1411 1416 1419 1423 1428 1432 1435 1438 1442 1445 1448 1452 1455 1459 1462
1488 1481 1475 1469 1462 1456 1450 1444 1439 1433 1427 1421 1416 1411 1406 1402 1397 1392 1388 1384 1380 1377 1377 1379 1383 1387 1391 1394 1399 1405 1409 1413 1416 1421 1426 1430 1433 1437 1440 1444 1447 1451 1455 1458
1479 1472 1466 1460 1454 1448 1441 1435 1429 1424 1418 1413 1407 1402 1398 1394 1390 1386 1382 1378 1375 1371 1370 1372 1375 1380 1384 1388 1392 1397 1402 1407 1410 1415 1420 1424 1428 1432 1435 1439 1442 1446 1450 1453
1470 1464 1457 1451 1445 1439 1433 1426 1420 1415 1409 1404 1398 1393 1388 1385 1382 1378 1375 1372 1370 1367 1366 1366 1368 1372 1377 1381 1385 1391 1396 1400 1404 1409 1413 1417 1421 1425 1429 1433 1437 1440 1444 1448
1462 1456 1449 1443 1436 1430 1424 1418 1411 1405 1399 1394 1389 1384 1379 1375 1373 1370 1367 1365 1364 1362 1361 1361 1363 1366 1370 1374 1378 1384 1389 1393 1398 1402 1406 1410 1415 1419 1423 1427 1431 1434 1438 1441
1456 1449 1442 1435 1428 1421 1415 1408 1402 1395 1389 1384 1379 1374 1370 1366 1363 1361 1359 1358 1357 1357 1356 1356 1358 1361 1364 1368 1372 1377 1382 1387 1391 1395 1399 1404 1408 1412 1416 1420 1424 1428 1431 1435
1450 1443 1435 1428 1420 1412 1405 1398 1391 1385 1378 1372 1368 1364 1360 1357 1354 1353 1350 1350 1351 1350 1351 1351 1353 1355 1358 1362 1366 1370 1375 1379 1384 1388 1392 1396 1400 1405 1409 1413 1417 1421 1424 1428
1444 1436 1429 1421 1413 1404 1395 1387 1380 1373 1367 1361 1356 1352 1349 1346 1344 1343 1343 1343 1343 1344 1345 1346 1347 1349 1352 1356 1360 1363 1367 1372 1376 1381 1385 1389 1393 1397 1401 1405 1409 1413 1417 1420
1438 1430 1421 1413 1404 1396 1387 1377 1369 1361 1354 1348 1344 1340 1338 1336 1335 1334 1335 1335 1336 1337 1338 1340 1341 1343 1346 1350 1353 1356 1360 1364 1368 1373 1378 1382 1386 1390 1394 1398 1402 1406 1409 1412
1431 1423 1415 1407 1398 1389 1378 1368 1359 1351 1343 1337 1332 1329 1327 1326 1325 1325 1326 1327 1328 1329 1331 1333 1335 1337 1340 1343 1346 1349 1353 1356 1361 1365 1370 1374 1378 1382 1386 1390 1394 1398 1402 1405
1424 1416 1408 1399 1390 1380 1370 1360 1350 1341 1334 1328 1322 1319 1317 1316 1316 1316 1317 1319 1320 1321 1323 1325 1327 1330 1333 1336 1339 1342 1346 1349 1353 1357 1361 1366 1370 1375 1379 1383 1387 1391 1395 1398